All
Fisher County Airport (Rotan/Roby, TX) 56F Weather
There is no TAF data available at 56F or any nearby airports.
There is no METAR data available at 56F. Showing METAR data for KSWW (25 mi S).
Recent SWW METAR history (no data for 56F)
| Date | Time (CDT) | Flight Rules | Wind Dir. | Speed | Type | Height AGL (ft) | Visibility | Temp (°C) | Temp (°F) | Dew Point (°C) | Dew Point (°F) | Rel. Humid. | Pressure | Density Altitude | Remarks |
|---|---|---|---|---|---|---|---|---|---|---|---|---|---|---|---|
| 08-May | 03:15 | VFR | Calm | 10 miles | 16° | 60° | 11° | 51° | 74% | 29.99 in Hg | 2,904 ft | ||||
| 08-May | 02:55 | VFR | Calm | 10 miles | 15° | 59° | 11° | 51° | 75% | 30.00 in Hg | 2,774 ft | ||||
| 08-May | 02:35 | VFR | Calm | 10 miles | 15° | 59° | 11° | 51° | 76% | 30.00 in Hg | 2,774 ft | ||||
| 08-May | 02:15 | VFR | Calm | 10 miles | 14° | 57° | 10° | 50° | 77% | 30.01 in Hg | 2,644 ft | ||||
| 08-May | 01:55 | VFR | 320° | 3 kt | 10 miles | 14° | 57° | 10° | 50° | 76% | 30.01 in Hg | 2,644 ft | |||
| 08-May | 01:15 | VFR | 170° | 3 kt | 10 miles | 14° | 57° | 10° | 50° | 74% | 30.01 in Hg | 2,644 ft | |||
| 08-May | 00:55 | VFR | Calm | 10 miles | 15° | 59° | 10° | 50° | 73% | 30.01 in Hg | 2,764 ft | ||||
| 08-May | 00:40 | VFR | Calm | 10 miles | 15° | 59° | 10° | 50° | 74% | 30.01 in Hg | 2,764 ft | ||||
| 08-May | 00:15 | VFR | 160° | 8 kt | 10 miles | 15° | 59° | 11° | 51° | 74% | 30.01 in Hg | 2,764 ft | |||
| 07-May | 23:55 | VFR | 160° | 10 kt | 10 miles | 16° | 60° | 11° | 51° | 71% | 30.01 in Hg | 2,884 ft | |||
| 07-May | 23:35 | VFR | 180° | 9 kt | 10 miles | 16° | 60° | 11° | 51° | 70% | 30.03 in Hg | 2,864 ft | |||
| 07-May | 23:15 | VFR | 190° | 10 kt | 10 miles | 16° | 60° | 11° | 51° | 69% | 30.04 in Hg | 2,854 ft | |||
| 07-May | 22:55 | VFR | 170° | 12 kt | 10 miles | 16° | 60° | 10° | 50° | 66% | 30.03 in Hg | 2,864 ft | |||
| 07-May | 22:35 | VFR | 170° | 10 kt | 10 miles | 16° | 60° | 9° | 48° | 62% | 30.03 in Hg | 2,864 ft | |||
| 07-May | 22:15 | VFR | 180° | 7 kt | 10 miles | 16° | 60° | 9° | 48° | 60% | 30.02 in Hg | 2,874 ft | |||
| 07-May | 21:55 | VFR | 170° | 9 kt | 10 miles | 17° | 62° | 9° | 48° | 57% | 30.02 in Hg | 2,994 ft | |||
| 07-May | 21:35 | VFR | 170° | 9 kt | 10 miles | 18° | 64° | 8° | 46° | 55% | 30.01 in Hg | 3,124 ft | |||
| 07-May | 21:15 | VFR | 170° | 12 kt | 10 miles | 18° | 64° | 8° | 46° | 53% | 30.01 in Hg | 3,124 ft | Wind gusting to 16 KT | ||
| 07-May | 20:55 | VFR | 180° | 11 kt | 10 miles | 19° | 66° | 8° | 46° | 51% | 30.00 in Hg | 3,254 ft | |||
| 07-May | 20:35 | VFR | 160° | 10 kt | 10 miles | 19° | 66° | 8° | 46° | 49% | 29.99 in Hg | 3,264 ft | |||
| 07-May | 20:15 | VFR | 150° | 11 kt | 10 miles | 20° | 68° | 8° | 46° | 47% | 29.99 in Hg | 3,384 ft | |||
| 07-May | 19:55 | VFR | 150° | 10 kt | 10 miles | 21° | 69° | 8° | 46° | 44% | 29.98 in Hg | 3,514 ft | |||
| 07-May | 19:15 | VFR | 170° | 14 kt | 10 miles | 21° | 69° | 9° | 48° | 44% | 30.00 in Hg | 3,494 ft | |||
| 07-May | 18:55 | VFR | 170° | 13 kt | 10 miles | 22° | 71° | 8° | 46° | 43% | 30.00 in Hg | 3,614 ft |
Login
| Your browser is unsupported. upgrade your browser |
